[[{"header":{"parameterUnit":"m.s-1","parameterCategory":1,"la1":30.2991,"la2":30.254,"lo1":-89.0895,"lo2":-89.0444,"dy":0.0017,"dx":0.0017,"nx":28,"ny":28,"refTime":"2024-03-14T21:00:00:Z","depth":0,"parameterNumber":2,"parameterNumberName":"U-component_of_WINDS"},"data":[0,0,0,0,0,0,0,0,0,0,0,0,0,0,0,0,0,0,0,0,0,0,0,0,0,0,0,0,0,0,0,0,0,0,0,0,0,0,0,0,0,0,0,0,0,0,0,0,0,0,0,0,0,0,0,0,0,0,-5.7443,-5.7444,0,-5.7529,-5.753,-5.7531,-5.7463,-5.746,-5.7457,-5.7454,-5.7541,-5.7546,-5.7551,0,0,0,0,0,0,0,0,0,0,0,0,0,-5.7222,-5.7227,-5.7443,-5.7444,-5.7445,-5.7529,-5.753,-5.7531,-5.7463,-5.746,-5.7456,-5.7453,-5.7539,-5.7545,-5.7551,0,0,0,0,0,0,0,0,0,0,0,0,0,-5.7314,-5.7228,-5.7443,-5.7422,-5.7421,-5.7528,-5.753,-5.7531,-5.7464,-5.746,-5.7455,-5.7451,-5.7537,-5.7545,-5.7552,-5.7685,0,0,-5.7575,-5.7578,0,0,0,0,0,0,0,0,-5.7309,-5.7322,-5.7424,-5.7423,-5.7422,-5.7481,-5.7484,-5.7583,-5.7465,-5.7448,-5.7454,-5.7449,-5.7524,-5.7533,-5.7558,-5.7689,-5.7693,-5.7576,-5.758,-5.7584,-5.7586,0,0,0,0,0,0,0,-5.7303,-5.7318,-5.7477,-5.7425,-5.7425,-5.7408,-5.7416,-5.7502,-5.7509,-5.7449,-5.7444,-5.7455,-5.7523,-5.7551,-5.756,-5.7694,-5.7576,-5.7582,-5.7587,-5.759,-5.7941,-5.7946,0,0,0,0,0,0,-5.7299,-5.7314,-5.7474,-5.748,-5.7354,-5.7416,-5.7425,-5.7466,-5.7508,-5.751,-5.7459,-5.7452,-5.754,-5.7551,-5.7563,-5.7722,-5.7583,-5.759,-5.7595,-5.7937,-5.7942,-5.7948,0,0,0,0,0,0,-5.7294,-5.7314,-5.7471,-5.7395,-5.7414,-5.7424,-5.7471,-5.747,-5.7498,-5.7516,-5.7517,-5.7486,-5.7537,-5.7552,-5.7656,-5.7724,-5.7594,-5.7601,-5.7931,-5.7938,-5.7945,-5.8041,0,0,0,0,0,0,-5.7288,-5.7312,-5.7362,-5.7397,-5.7419,-5.7562,-5.7475,-5.7475,-5.7511,-5.7503,-5.7541,-5.7544,-5.7535,-5.7645,-5.7663,-5.7732,-5.7607,-5.7925,-5.7934,-5.7943,-5.8032,-5.805,-5.8067,0,0,0,0,0,-5.728,-5.7385,-5.7365,-5.7385,-5.7481,-5.7566,-5.7579,-5.7567,-5.7517,-5.7568,-5.758,-5.7542,-5.7714,-5.7656,-5.7676,-5.7748,-5.792,-5.7932,-5.7942,-5.8024,-5.8047,-5.8066,0,0,0,0,0,0,-5.7357,-5.7389,-5.7367,-5.7487,-5.7525,-5.7555,-5.7618,-5.7591,-5.7644,-5.7633,-5.7617,-5.7626,-5.7736,-5.7752,-5.7687,-5.788,-5.7809,-5.7825,-5.7864,-5.7887,-5.7904,-5.7896,-5.7613,0,0,0,0,0,-5.7388,-5.7455,-5.7479,-5.7582,-5.7603,-5.7608,-5.7644,-5.7632,-5.7671,-5.7686,-5.7705,-5.7744,-5.7806,-5.7848,-5.7906,-5.8035,-5.8043,-5.8095,-5.8112,-5.8126,-5.8139,-5.8209,-5.8233,-5.7983,-5.7983,-5.7983,0,0,-5.7452,-5.7478,-5.7521,-5.7598,-5.7626,-5.7696,-5.7621,-5.7697,-5.7749,-5.7697,-5.7796,-5.7813,-5.7855,-5.7972,-5.8024,-5.7989,-5.821,-5.814,-5.8151,-5.8156,-5.8223,-5.8246,-5.8267,-5.7991,-5.7989,-5.7988,0,0,-5.7604,-5.7631,-5.772,-5.775,-5.7794,-5.7797,-5.7819,-5.7855,-5.7863,-5.7963,-5.7927,-5.7988,-5.8096,-5.8128,-5.8159,-5.8328,-5.8295,-5.8348,-5.8438,-5.8507,-5.8526,-5.8544,-5.8603,-5.8625,-5.8361,-5.8361,-5.8361,0,-5.7678,-5.7781,-5.7769,-5.7849,-5.7884,-5.7843,-5.7934,-5.7964,-5.8024,-5.805,-5.801,-5.8147,-5.8172,-5.8297,-5.8338,-5.8365,-5.8389,-5.8341,-5.8525,-5.8542,-5.8558,-5.8615,-5.8637,-5.8367,-5.8366,-5.8366,-5.8365,0,-5.7869,-5.7942,-5.8009,-5.807,-5.8113,-5.8198,-5.8199,-5.8245,-5.8231,-5.8239,-5.8342,-5.8372,-5.8437,-5.8466,-5.8453,-5.859,-5.8567,-5.8527,-5.8454,-5.8588,-5.8641,-5.8662,-5.8376,-5.8373,-5.8372,-5.837,0,0,-5.8067,-5.8124,-5.8148,-5.8176,-5.8224,-5.8279,-5.8364,-5.8428,-5.8467,-5.8512,-5.8582,-5.8677,-5.8641,-5.8676,-5.8666,-5.8727,-5.8859,-5.8679,-5.868,-5.871,-5.9012,-5.904,-5.9066,-5.8839,-5.8843,-5.8847,-5.9008,0,-5.8221,-5.8367,-5.836,-5.8497,-5.8564,-5.8528,-5.8602,-5.864,-5.865,-5.871,-5.8722,-5.8789,-5.8736,-5.8757,-5.8816,-5.883,-5.8919,-5.8819,-5.8904,-5.8907,-5.8892,-5.9094,-5.9123,-5.9274,-5.9029,-5.9032,-5.9035,0,-5.8418,-5.847,-5.8614,-5.8654,-5.8682,-5.8748,-5.8807,-5.8864,-5.8907,-5.8911,-5.8952,-5.8934,-5.902,-5.8948,-5.9067,-5.8999,-5.9034,-5.9047,-5.9053,-5.9058,-5.8977,-5.9103,-5.9321,-5.9343,-5.9068,-5.9065,-5.9063,0,-5.8547,-5.8654,-5.8754,-5.8779,-5.8828,-5.8876,-5.8898,-5.8937,-5.8977,-5.903,-5.9055,-5.9118,-5.9151,-5.92,-5.9199,-5.9147,-5.932,-5.9248,-5.9325,-5.9325,-5.936,-5.9357,-5.9586,-5.9387,-5.9387,-5.9386,-5.9386,0,-5.8717,-5.8806,-5.8813,-5.8874,-5.8973,-5.8967,-5.9065,-5.9083,-5.9119,-5.9184,-5.9158,-5.9219,-5.9215,-5.9278,-5.9278,-5.9377,-5.9393,-5.9398,-5.9396,-5.9399,-5.9398,-5.9419,-5.9408,-5.9392,-5.9391,-5.939,-5.9389,0,-5.8876,-5.8884,-5.8991,-5.903,-5.9042,-5.9114,-5.9147,-5.9206,-5.9216,-5.9299,-5.9318,-5.9334,-5.9406,-5.9412,-5.9495,-5.9496,-5.9615,-5.9603,-5.96,-5.9597,-5.9673,-5.9666,-5.9922,-5.9955,-5.9736,-5.9738,-5.974,0,-5.8982,-5.905,-5.9098,-5.914,-5.9165,-5.9233,-5.9274,-5.9272,-5.9316,-5.9372,-5.9424,-5.9495,-5.9551,-5.9669,-5.9688,-5.9753,-5.9741,-5.9827,-5.975,-5.9751,-5.9741,-5.9736,-5.9742,-5.984,-5.9843,-5.9845,-5.9846,0,-5.9171,-5.9172,-5.9233,-5.9296,-5.9347,-5.9396,-5.9442,-5.9478,-5.9481,-5.9533,-5.9607,-5.9651,-5.9738,-5.9808,-5.9872,-5.9896,-5.9872,-5.9871,-5.9892,-5.9893,-5.9888,-5.9891,-5.9638,-5.9864,-5.9862,-5.9861,-5.986,-5.9859,-5.9305,-5.9365,-5.9408,-5.9477,-5.9512,-5.9557,-5.9614,-5.9633,-5.9695,-5.9766,-5.9762,-5.9844,-5.9888,-5.9972,-6.0001,-6.0066,-6.0037,-6.0068,-6.0075,-6.0082,-6.0089,-5.9881,-6.0078,-6.0078,-6.0077,-6.0077,-6.0076,0,-5.9491,-5.9518,-5.9582,-5.9648,-5.9703,-5.9679,-5.9729,-5.9777,-5.985,-5.9893,-5.995,-6.0037,-6.0106,-6.0133,-6.02,-6.0247,-6.0238,-6.0265,-6.026,-6.0266,-6.0112,-6.0086,-6.0271,-6.0271,-6.0271,-6.0271,-6.0271,-6.0271,-5.9594,-5.9693,-5.9701,-5.9818,-5.9844,-5.9925,-5.9956,-5.9998,-6.0033,-6.0131,-6.0189,-6.0206,-6.0244,-6.0314,-6.0377,-6.0383,-6.0409,-6.044,-6.0442,-6.0297,-6.0277,-6.0258,-6.0234,-6.0446,-6.0447,-6.059,-6.0591,-6.0592]},{"header":{"parameterUnit":"m.s-1","parameterCategory":1,"la1":30.2991,"la2":30.254,"lo1":-89.0895,"lo2":-89.0444,"dy":0.0017,"dx":0.0017,"nx":28,"ny":28,"refTime":"2024-03-14T21:00:00:Z","depth":0,"parameterNumber":3,"parameterNumberName":"V-component_of_WINDS"},"data":[0,0,0,0,0,0,0,0,0,0,0,0,0,0,0,0,0,0,0,0,0,0,0,0,0,0,0,0,0,0,0,0,0,0,0,0,0,0,0,0,0,0,0,0,0,0,0,0,0,0,0,0,0,0,0,0,0,0,1.3636,1.3636,0,1.3633,1.3633,1.3633,1.3657,1.3658,1.3659,1.3659,1.3652,1.3652,1.3651,0,0,0,0,0,0,0,0,0,0,0,0,0,1.3662,1.3662,1.3636,1.3636,1.3636,1.3633,1.3633,1.3633,1.3657,1.3658,1.3659,1.366,1.3653,1.3652,1.3651,0,0,0,0,0,0,0,0,0,0,0,0,0,1.3654,1.3662,1.3636,1.3648,1.3649,1.3633,1.3633,1.3633,1.3657,1.3658,1.3659,1.366,1.3653,1.3652,1.3651,1.3622,0,0,1.3647,1.3646,0,0,0,0,0,0,0,0,1.3655,1.3653,1.3646,1.3647,1.3648,1.3647,1.364,1.3629,1.3657,1.3654,1.3659,1.3661,1.3649,1.3648,1.3645,1.3621,1.3621,1.3647,1.3646,1.3645,1.3645,0,0,0,0,0,0,0,1.3655,1.3653,1.3635,1.3646,1.3647,1.3653,1.3653,1.3638,1.3646,1.3654,1.3656,1.3655,1.365,1.3647,1.3645,1.3621,1.3647,1.3645,1.3645,1.3644,1.3576,1.3575,0,0,0,0,0,0,1.3654,1.3654,1.3635,1.3635,1.3654,1.3652,1.3652,1.3646,1.3646,1.3647,1.3655,1.3657,1.3648,1.3647,1.3645,1.3613,1.3645,1.3644,1.3643,1.3577,1.3576,1.3575,0,0,0,0,0,0,1.3655,1.3652,1.3635,1.3645,1.3643,1.365,1.3644,1.3645,1.3642,1.3646,1.3648,1.365,1.3649,1.3647,1.3628,1.3613,1.3644,1.3642,1.3578,1.3577,1.3575,1.3548,0,0,0,0,0,0,1.3655,1.3652,1.3642,1.3644,1.3642,1.3618,1.3643,1.3645,1.364,1.3643,1.3642,1.3643,1.365,1.363,1.3627,1.3612,1.3641,1.358,1.3577,1.3576,1.355,1.3546,1.3542,0,0,0,0,0,1.3656,1.3633,1.3641,1.3638,1.3629,1.3617,1.3616,1.3626,1.3639,1.3628,1.3631,1.3643,1.3616,1.3628,1.3625,1.3609,1.3581,1.3578,1.3576,1.3552,1.3546,1.3542,0,0,0,0,0,0,1.3626,1.3633,1.3642,1.3619,1.3618,1.3621,1.3608,1.3619,1.3613,1.3615,1.3626,1.3626,1.3606,1.3605,1.3619,1.3583,1.36,1.3597,1.3583,1.3578,1.3574,1.3574,1.364,0,0,0,0,0,1.3617,1.3608,1.3614,1.3593,1.3592,1.36,1.3595,1.3603,1.3602,1.3601,1.3602,1.36,1.3591,1.3584,1.3576,1.3551,1.3551,1.3539,1.3534,1.3531,1.3528,1.3516,1.3511,1.3567,1.3567,1.3567,0,0,1.3597,1.36,1.3593,1.3587,1.3587,1.3577,1.3599,1.3587,1.358,1.3598,1.3581,1.3583,1.3581,1.3559,1.3549,1.3558,1.3513,1.3528,1.3525,1.3524,1.3513,1.3508,1.3503,1.3565,1.3565,1.3566,0,0,1.3557,1.3558,1.3541,1.3542,1.3542,1.3548,1.3544,1.3547,1.3549,1.3533,1.3548,1.3539,1.3523,1.3522,1.3519,1.3481,1.3492,1.3478,1.3456,1.3444,1.344,1.3436,1.3424,1.3419,1.3475,1.3475,1.3475,0,1.3532,1.3518,1.3531,1.3519,1.3516,1.3535,1.3519,1.3518,1.3515,1.3513,1.3523,1.3506,1.3505,1.3484,1.3476,1.3472,1.3469,1.3478,1.344,1.3436,1.3433,1.3421,1.3416,1.3474,1.3474,1.3474,1.3474,0,1.3489,1.3479,1.3466,1.3465,1.3461,1.3446,1.3457,1.3451,1.346,1.3465,1.345,1.345,1.3444,1.344,1.3447,1.342,1.3426,1.3438,1.3456,1.3426,1.3415,1.3411,1.3471,1.3472,1.3472,1.3473,0,0,1.3427,1.3436,1.3431,1.3432,1.3435,1.3427,1.3415,1.341,1.3406,1.3403,1.3393,1.3381,1.3393,1.339,1.3398,1.3388,1.336,1.3401,1.3401,1.3394,1.3332,1.3324,1.3318,1.3368,1.3367,1.3366,1.3333,0,1.3389,1.3368,1.3381,1.3358,1.335,1.337,1.3359,1.3359,1.3364,1.3358,1.3363,1.3355,1.3371,1.337,1.3361,1.3365,1.3348,1.3368,1.3358,1.3358,1.3358,1.3313,1.3303,1.3271,1.3329,1.3328,1.3327,0,1.334,1.3339,1.3316,1.3324,1.3321,1.3311,1.3309,1.3303,1.3305,1.3309,1.3307,1.3318,1.3307,1.3325,1.331,1.3323,1.332,1.3322,1.3321,1.332,1.3341,1.3311,1.3261,1.3257,1.3321,1.3321,1.3322,0,1.3299,1.3291,1.3278,1.3277,1.3285,1.3278,1.3281,1.3284,1.3281,1.3279,1.3278,1.3274,1.3272,1.3269,1.3279,1.3291,1.3263,1.3281,1.3266,1.3266,1.3259,1.3259,1.3208,1.3256,1.3256,1.3257,1.3257,0,1.3255,1.3241,1.326,1.3251,1.3236,1.3251,1.3235,1.324,1.3243,1.3236,1.3252,1.3244,1.3258,1.3252,1.326,1.3247,1.3245,1.3249,1.3251,1.3248,1.3247,1.3246,1.3248,1.3255,1.3256,1.3256,1.3256,0,1.3206,1.3218,1.3204,1.3214,1.3216,1.3205,1.3213,1.3205,1.3213,1.3204,1.3202,1.3213,1.3208,1.3218,1.3213,1.3218,1.32,1.3205,1.32,1.3202,1.3186,1.3188,1.3133,1.3127,1.3178,1.3178,1.3177,0,1.3177,1.3167,1.3177,1.3174,1.3176,1.3171,1.3169,1.3184,1.3181,1.3185,1.3177,1.3173,1.3171,1.3161,1.3168,1.3165,1.317,1.3152,1.317,1.3167,1.3171,1.3172,1.3171,1.3147,1.3147,1.3146,1.3146,0,1.3125,1.3132,1.313,1.313,1.3128,1.3128,1.313,1.3126,1.3142,1.3139,1.3134,1.3132,1.3129,1.3125,1.3124,1.3127,1.3139,1.314,1.3137,1.3133,1.3131,1.3133,1.319,1.3141,1.3142,1.3142,1.3142,1.3142,1.3086,1.3079,1.3085,1.3082,1.3086,1.3087,1.3082,1.3089,1.3086,1.3086,1.3095,1.3088,1.3093,1.3093,1.3095,1.309,1.3098,1.3093,1.3092,1.309,1.3088,1.3132,1.309,1.309,1.309,1.309,1.309,0,1.3035,1.3041,1.3039,1.3042,1.304,1.3054,1.3057,1.3054,1.3049,1.3052,1.3051,1.3047,1.3044,1.3052,1.305,1.3045,1.3051,1.3044,1.3045,1.3046,1.308,1.3084,1.304,1.304,1.304,1.304,1.304,1.304,1.3009,1.2998,1.3007,1.2998,1.3004,1.2999,1.3,1.3002,1.3005,1.3,1.2999,1.3005,1.3011,1.301,1.3008,1.3011,1.301,1.3001,1.3006,1.3038,1.3043,1.3047,1.3051,1.3001,1.3001,1.2972,1.2971,1.2971]}]]